Weather History for Kinloss, United Kingdom

Change the Weather History Date:

Sunday, November 10, 2013

  Actual Average Record
Temperature  
Mean Temperature 40 °F -  
Max Temperature 46 °F 46 °F 57 °F (2011)
Min Temperature 33 °F 35 °F 28 °F (1996)
Degree Days  
Heating Degree Days 26    
Moisture  
Dew Point 34 °F    
Average Humidity 76    
Maximum Humidity 87    
Minimum Humidity 53    
Precipitation  
Precipitation 0.01 in 0.08 in - ()
Sea Level Pressure  
Sea Level Pressure 29.90 in    
Wind  
Wind Speed 8 mph ()    
Max Wind Speed 18 mph    
Max Gust Speed 23 mph    
Visibility 6.2 miles    
Events Rain    
Averages and records for this station are not official NWS values.
T = Trace of Precipitation, MM = Missing Value Source: Averaged Metar Reports

Daily Weather History Graph

Daily Weather History Graph

Search for Another Location

Airport:

Trip Planner

Search our weather history database for the weather conditions in past years. The results will help you decide how hot, cold, wet, or windy it might be!

Date:

Astronomy

Nov. 10, 2013 Rise Set
Actual Time 7:47 AM GMT 4:07 PM GMT
Civil Twilight 7:04 AM GMT 4:51 PM GMT
Nautical Twilight 6:16 AM GMT 5:38 PM GMT
Astronomical Twilight 5:31 AM GMT 6:23 PM GMT
Moon 1:27 PM GMT (11/10) No Moon Set
Length of Visible Light 9h 47m
Length of Day
8h 19m
First Quarter, 53% of the Moon is Illuminated
Nov 10
First Quarter
Nov 17
Full
Nov 25
Last Quarter
Dec 3
New
Dec 9
First Quarter

Hourly Weather History & Observations

Time (GMT) Temp. Windchill Dew Point Humidity Pressure Visibility Wind Dir Wind Speed Gust Speed Precip Events Conditions
12:00 AM 36 °F - 32 °F 81% 29.61 in 31 mi SW 8.1 mph - -   Scattered Clouds
12:50 AM 35.6 °F 29.2 °F 32.0 °F 87% 29.62 in 6.2 mi WSW 8.1 mph - N/A   Partly Cloudy
1:50 AM 37.4 °F 30.3 °F 32.0 °F 81% 29.65 in 6.2 mi SW 10.4 mph - N/A   Mostly Cloudy
2:50 AM 39.2 °F 31.6 °F 35.6 °F 87% 29.68 in 6.2 mi West 12.7 mph - N/A   Mostly Cloudy
3:00 AM 39 °F - 35 °F 82% 29.70 in 31 mi West 12.7 mph - -   Scattered Clouds
3:50 AM 41.0 °F 33.9 °F 37.4 °F 87% 29.74 in 6.2 mi West 12.7 mph - N/A   Mostly Cloudy
4:50 AM 42.8 °F 35.4 °F 39.2 °F 87% 29.77 in 6.2 mi NW 15.0 mph - N/A   Mostly Cloudy
5:50 AM 42.8 °F 34.5 °F 39.2 °F 87% 29.83 in 6.2 mi North 18.4 mph - N/A   Mostly Cloudy
6:00 AM 43 °F - 38 °F 78% 29.84 in 37 mi North 18.4 mph - - Rain Rain
6:50 AM 42.8 °F 34.8 °F 37.4 °F 81% 29.86 in 6.2 mi NNW 17.3 mph - N/A   Mostly Cloudy
7:50 AM 41.0 °F 34.7 °F 33.8 °F 76% 29.92 in 6.2 mi North 10.4 mph - N/A   Partly Cloudy
8:50 AM 39.2 °F 33.0 °F 35.6 °F 87% 29.95 in 6.2 mi WNW 9.2 mph - N/A   Unknown
9:00 AM 39 °F - 36 °F 85% 29.95 in 31 mi WNW 9.2 mph - -  
9:50 AM 41.0 °F 37.1 °F 37.4 °F 87% 29.98 in 6.2 mi SW 5.8 mph - N/A   Unknown
10:50 AM 44.6 °F 41.4 °F 37.4 °F 76% 29.98 in 6.2 mi WSW 5.8 mph - N/A   Unknown
11:50 AM 44.6 °F 39.7 °F 37.4 °F 76% 30.01 in 6.2 mi West 9.2 mph - N/A   Mostly Cloudy
12:00 PM 45 °F - 38 °F 68% 30.03 in 28 mi West 9.2 mph - -   Mostly Cloudy
12:50 PM 46.4 °F 44.3 °F 37.4 °F 71% 30.01 in 6.2 mi NW 4.6 mph - N/A   Unknown
1:50 PM 46.4 °F 45.2 °F 35.6 °F 66% 30.04 in 6.2 mi SSW 3.5 mph - N/A   Unknown
2:50 PM 44.6 °F 43.1 °F 33.8 °F 66% 30.04 in 6.2 mi SSE 3.5 mph - N/A   Unknown
3:00 PM 45 °F - 33 °F 53% 30.04 in 34 mi SSE 3.5 mph - -  
3:50 PM 41.0 °F 37.1 °F 32.0 °F 70% 30.04 in 6.2 mi SSE 5.8 mph - N/A   Unknown
4:50 PM 37.4 °F 32.1 °F 32.0 °F 81% 30.04 in 6.2 mi SE 6.9 mph - N/A   Unknown
5:50 PM 35.6 °F 30.7 °F 30.2 °F 81% 30.04 in 6.2 mi SE 5.8 mph - N/A   Unknown
6:00 PM 35 °F - 30 °F 77% 30.04 in 31 mi SE 5.8 mph - -  
6:50 PM 33.8 °F 29.6 °F 28.4 °F 81% 30.01 in 6.2 mi East 4.6 mph - N/A   Unknown
7:50 PM 37.4 °F 32.1 °F 32.0 °F 81% 29.98 in 6.2 mi SE 6.9 mph - N/A   Mostly Cloudy
8:50 PM 41.0 °F 38.0 °F 32.0 °F 70% 29.95 in 6.2 mi SE 4.6 mph - N/A   Mostly Cloudy
9:00 PM 40 °F - 32 °F 63% 29.96 in 47 mi SE 4.6 mph - -   Mostly Cloudy
9:50 PM 41.0 °F 37.1 °F 32.0 °F 70% 29.92 in 6.2 mi WSW 5.8 mph - N/A   Scattered Clouds
10:50 PM 44.6 °F 39.2 °F 32.0 °F 61% 29.86 in 6.2 mi South 10.4 mph 23.0 mph N/A   Overcast
11:50 PM 44.6 °F 40.7 °F 30.2 °F 57% 29.80 in 6.2 mi South 6.9 mph - N/A   Overcast